Regional Weather Roundup
Issued by NWS Austin/San Antonio, TX

Current Version | Previous Version | Text Only | Print | Product List | Glossary On
Versions: 1 2 3 4 5 6 7 8 9 10 11 12 13 14 15 16 17 18 19 20 21 22 23 24 25 26 27 28 29 30 31 32 33 34 35 36 37 38 39 40 41 42 43 44 45 46 47 48 49 50
000
ASUS44 KEWX 291301
RWREWX
SOUTH TEXAS REGIONAL WEATHER ROUNDUP
NATIONAL WEATHER SERVICE AUSTIN/SAN ANTONIO TX
800 AM CDT THU SEP 29 2022

NOTE: "FAIR" INDICATED FEW OR NO CLOUDS BELOW 12,000 FEET WITH NO
SIGNIFICANT WEATHER AND/OR OBSTRUCTIONS TO VISIBILITY.

* - THESE STATIONS ARE NOT NWS OR FAA STATIONS...AND ARE NOT SUBJECT
    TO NWS AND FAA QUALITY CONTROL.

TXZ171-172-183>190-291400-
TEXAS HILL COUNTRY AND EDWARDS PLATEAU

CITY           SKY/WX    TMP DP  RH WIND       PRES   REMARKS
JUNCTION       CLEAR     53  46  77 CALM      30.28R
*LLANO         CLEAR     54  46  76 CALM      30.24R
BURNET         CLEAR     60  46  59 CALM      30.27R
*HORSESHOE BAY CLEAR     56  46  69 S3        30.25R
*LAGO VISTA      N/A     66  43  43 CALM      30.25R
*KERRVILLE     CLEAR     54  45  72 CALM      30.26R
*FREDERICKSBRG CLEAR     54  45  70 CALM      30.26R
*ROCKSPRINGS   CLEAR     61  50  67 W5        30.32S
*BOERNE        CLEAR     55  46  71 CALM      30.25R
HONDO          CLEAR     58  45  62 N3        30.23R
*UVALDE        CLEAR     56  50  81 CALM      30.26R
DEL RIO        CLEAR     63  52  67 NE3       30.23R
*LAUGHLIN AFB  CLEAR     57  53  86 NE5       30.21S
*SPOFFORD      CLEAR     56  49  74 W6        30.22S
CARRIZO SPRGS  CLEAR     57  52  82 MISG      30.21R
*FAITH RANCH   CLEAR     61  54  77 W5        30.24R
$$

TXZ173-191>194-202-209-217>225-228-291400-
CENTRAL AND SOUTH CENTRAL TEXAS

CITY           SKY/WX    TMP DP  RH WIND       PRES   REMARKS
GEORGETOWN     CLEAR     61  47  59 CALM      30.26R
*TAYLOR        CLEAR     54  47  78 CALM      30.24R
AUSTIN/BERGSTM CLEAR     55  50  83 CALM      30.23R
AUSTIN/MABRY   CLEAR     65  53  65 CALM      30.24R
*PFLUGERVILLE  CLEAR     59  45  58 N3        30.23R
SAN MARCOS     CLEAR     61  45  55 E3        30.23S
NEW BRAUNFELS  CLEAR     84  49  29 NW8       30.21R
*RANDOLPH AFB  CLEAR     60  49  68 NW6       30.20R
*SEGUIN        CLEAR     58  53  81 E3        30.21R
SAN ANTONIO    CLEAR     63  50  62 NW3       30.23R
STINSON FIELD  CLEAR     62  53  72 CALM      30.21R
*KELLY FIELD   CLEAR     60  49  66 CALM      30.20R
*PLEASANTON    CLEAR     57  52  82 CALM      30.22S
*KENEDY        CLEAR     56  53  91 W3        30.23R
*LA GRANGE     NOT AVBL
*GIDDINGS      CLEAR     58  51  75 E3        30.25R
*GONZALES      CLEAR     61  53  74 CALM      30.22R
$$

TXZ163>164-176>182-195>201-210>213-226-227-235-291400-
SOUTHEAST TEXAS

CITY           SKY/WX    TMP DP  RH WIND       PRES   REMARKS
COLLEGE STN    CLEAR     65  52  62 CALM      30.25R
*BRYAN         CLEAR     57  51  80 CALM      30.27R
*CALDWELL      CLEAR     64  49  58 SE3       30.26R
*CROCKETT      CLEAR     59  45  58 CALM      30.26R
*BRENHAM       CLEAR     60  52  75 CALM      30.25R
HUNTSVILLE     CLEAR     57  52  83 CALM      30.25R
CONROE         CLEAR     61  46  57 NE3       30.24R
HOUSTON BUSH   CLEAR     63  48  58 E9        30.22S
HOUSTON HOBBY  CLEAR     69  44  40 E12       30.21R
*HOUSTON SW AP NOT AVBL
PEARLAND       CLEAR     69  49  48 NE9       30.22R
HOUSTON HOOKS  CLEAR     63  49  60 E5        30.23R
ELLINGTON FLD  CLEAR     64  48  55 NE12      30.21R
SUGAR LAND     CLEAR     62  52  69 N5        30.22R
*HOUSTON EXEC  CLEAR     63  54  72 E5        30.25R
*CLEVELAND MUN NOT AVBL
*WHARTON       CLEAR     61  56  83 N6        30.23R
*COLUMBUS      FAIR      61  53  75 CALM      30.24S
*EAGLE LAKE    CLEAR     61  53  75 MISG      30.23R
$$

TXZ214>216-236>238-291400-
THE UPPER TEXAS COAST

CITY           SKY/WX    TMP DP  RH WIND       PRES   REMARKS
*ORANGE        SUNNY     60  48  65 CALM      30.24R
PORT ARTHUR    SUNNY     62  46  55 NE8       30.22R
GALVESTON      CLEAR     69  55  60 NE12      30.20R
ANGLETON       CLEAR     59  55  87 N6        30.20R
*BAY CITY      CLEAR     62  55  78 NE7       30.21R
PALACIOS       CLEAR     62  58  86 N6        30.20R
$$

TXZ229>234-239>247-291400-
TEXAS COASTAL BEND AND RIO GRANDE PLAINS

CITY           SKY/WX    TMP DP  RH WIND       PRES   REMARKS
VICTORIA       CLEAR     59  57  93 NE5       30.22R
*BEEVILLE      CLEAR     63  58  85 NW3       30.20R
ROCKPORT       CLEAR     70  65  84 N6        30.19R
*PORT ARANSAS  CLEAR    N/A N/A N/A N7        30.20S
*PORT LAVACA   CLEAR     65  59  81 N3        30.21R
*INGLESIDE     NOT AVBL
CORPUS CHRISTI PTCLDY    66  62  87 NW6       30.19R
CORPUS NAS     PTCLDY    75  67  76 N8        30.18R
*ROBSTOWN      CLEAR     61  58  91 MISG      30.20R
ALICE          CLEAR     62  60  93 NW5       30.19R
KINGSVILLE NAS PTCLDY    62  61  96 NW5       30.19R
COTULLA        CLEAR     62  55  77 N3        30.22R
LAREDO         CLEAR     66  58  75 CALM      30.21S
$$

TXZ248>255-291400-
DEEP SOUTH TEXAS

CITY           SKY/WX    TMP DP  RH WIND       PRES   REMARKS
BROWNSVILLE    PTCLDY    69  64  84 NW6       30.16R
PORT ISABEL    PTCLDY    67  64  90 NW5       30.16R
HARLINGEN      CLEAR     64  63  96 NW7       30.17R
*HEBBRONVILLE  CLEAR     63  58  86 W5        30.22R
MCALLEN        CLEAR     65  62  90 W5        30.19R
*WESLACO       CLEAR     64  61  91 NW5       30.18
FALFURRIAS     CLEAR     62  59  90 NW3       30.19S
EDINBURG       CLEAR     61  59  94 NW3       30.19S
*ZAPATA        CLEAR     63  62  96 CALM      30.22S
$$

TXZ213>215-236>238-242>244-246-247-251-254-255-291400-
CMAN STATIONS

STATION/POSITION TIME  TEMP    WIND        PRES    WAVE
                       AIR SEA DIR/SP/G            HT/PER
                 (UTC) (F)     (DEG/KT/KT) (MB)    (FT/S)
SEA RIM ST PARK  1200   63      50/  9/ 11 1022.7
NORTH JETTY/GLS  1224   69 78   70/ 19/ 21 1021.1
EAGLE POINT      1224   70 76   50/ 14/ 17 1022.3
MORGANS POINT    1230   66 80   40/ 12/ 15 1022.5
MISSION/ARANSAS  1200   72      10/  7     1022.0
PORT O`CONNOR    1230   74 85  320/ 12/ 13 1022.2
PORT ARANSAS     1200   72     330/  6/  7   N/A
BAFFIN BAY       1230   67 80  310/ 10/ 11 1022.3
PORT ISABEL      1230   80 82   10/  7/ 10 1020.5
$$



USA.gov is the U.S. government's official web portal to all federal, state and local government web resources and services.